Simultaneous Nadir Overpasses (SNOs) Predictions

Prediction of SNOs between NOAA-15 and METOP-C Satellite Orbit:

Table of predicted SNOs for the next 14.0 days since TLE Epoch: 3/3/2024
Index Date (NOAA-15) Time (NOAA-15) Lat,Lon (NOAA-15) SZA (NOAA-15 ) Date (METOP-C) Time (METOP-C) Lat,Lon (METOP-C) SZA (METOP-C ) Distance(km) Time Diff (sec)
1 03/16/2024 22:49:32 81.07,-124.26 84.00 03/16/2024 22:48:20 81.07,-124.23 83.98 0.49 72
2 03/16/2024 23:40:00 -81.07, 43.12 96.02 03/16/2024 23:39:02 -81.07, 43.12 96.04 0.03 58
3 03/17/2024 00:30:32 81.07,-149.43 83.98 03/17/2024 00:29:41 81.08,-149.36 83.97 1.77 51
4 03/17/2024 01:21:00 -81.07, 17.94 96.04 03/17/2024 01:20:23 -81.08, 17.99 96.04 1.51 37
5 03/17/2024 02:11:33 81.08,-174.97 83.93 03/17/2024 02:11:03 81.07,-174.86 83.93 2.11 30
6 03/17/2024 03:02:01 -81.08, -7.60 96.09 03/17/2024 03:01:45 -81.07, -7.51 96.09 1.76 16



Historial Predications of SNOs between NOAA-15 and METOP-C
